Lid_Strength_Index
2 2 1 1 1 1 2 3 4 6 5 3 2 1 1 0 0 0 1 2 2 4 3 2 3 3 4 3 0 -1 0 -0 -0 -0 -1 -1 -2 -2
1 2 2 2 2 1 1 2 2 3 5 4 3 2 1 0 -0 0 -0 1 1 2 3 3 3 4 4 4 2 0 1 1 0 0 0 -0 -1 -1
1 2 2 2 2 2 1 2 3 3 4 3 3 2 1 1 1 0 0 0 1 2 3 3 4 4 4 4 4 2 1 1 1 1 0 -0 -1 -1
2 2 1 1 2 2 1 2 2 2 2 4 3 2 2 2 1 2 1 -0 1 1 2 4 4 4 4 5 5 5 2 3 2 2 1 0 -1 -1
1 2 1 2 2 2 2 2 2 2 2 3 3 2 2 2 2 2 1 1 0 1 4 4 4 5 5 6 6 6 5 4 4 3 3 2 0 -0
1 1 1 1 2 2 2 2 2 3 3 3 3 3 3 3 2 2 2 1 1 0 2 3 4 4 5 6 5 6 7 7 6 5 4 4 3 1
1 1 1 1 1 2 2 2 2 3 3 3 3 3 3 3 3 3 3 3 3 2 2 3 3 4 4 5 4 4 6 8 7 7 6 6 5 4
2 1 1 2 2 2 2 3 2 2 3 4 4 4 4 5 4 4 4 4 5 2 2 2 2 1 2 4 4 5 6 7 8 8 8 7 7 5
2 1 1 0 2 2 2 4 4 4 3 2 4 4 5 4 4 5 5 5 5 3 2 2 2 2 0 1 4 5 6 7 8 8 8 8 7 7
3 2 2 1 1 1 1 2 2 2 2 3 3 3 3 3 4 4 4 4 4 3 2 3 3 3 2 1 3 3 7 8 8 9 8 9 10 9
2 2 2 2 4 6 3 2 2 1 2 4 5 5 5 5 5 4 4 5 3 4 3 3 3 3 3 2 3 5 6 8 9 9 9 9 11 11
2 1 6 5 9 9 5 4 3 3 3 3 3 3 3 3 5 3 2 3 3 5 3 3 3 4 4 3 3 5 6 8 10 10 10 10 11 7
2 1 2 8 9 10 9 5 4 3 4 3 3 3 2 2 1 2 2 2 2 3 2 2 4 4 4 4 3 5 6 7 7 9 11 12 12 9
4 3 4 9 11 10 9 7 7 7 4 3 3 3 3 2 1 1 0 1 0 1 0 1 3 3 4 4 4 4 6 6 6 6 7 10 12 12
5 5 8 9 9 7 7 7 7 5 4 3 3 3 2 1 1 2 2 1 0 0 0 1 1 1 3 3 3 4 4 5 6 6 6 6 7 8
6 7 6 7 8 7 6 4 3 2 2 2 2 1 1 2 2 1 2 2 2 2 1 1 1 1 2 2 2 2 3 3 5 6 5 6 6 6
7 6 6 6 5 5 5 4 3 2 2 1 1 1 1 1 1 1 2 2 3 2 2 1 2 1 1 2 2 2 2 2 2 4 5 5 5 6
5 4 5 4 4 4 3 2 2 1 2 3 1 1 2 2 2 1 1 2 3 2 2 2 1 3 3 1 2 2 2 2 1 3 4 5 4 5
6 6 6 4 4 3 3 3 4 3 3 2 1 2 2 1 2 2 2 2 2 2 2 1 2 3 5 5 2 4 2 2 2 2 4 4 3 2
8 6 5 5 3 4 5 5 5 5 4 4 4 2 1 2 2 2 2 2 3 2 2 2 2 2 3 4 3 2 8 1 2 2 2 3 3 6
5 5 5 3 3 4 5 5 5 5 5 4 4 4 4 3 2 2 2 5 4 2 3 3 2 4 2 1 3 3 1 7 4 1 1 2 3 4
4 4 5 5 5 6 5 6 6 6 6 6 6 5 5 5 4 3 3 3 3 2 2 1 1 2 3 3 4 3 2 1 4 7 7 5 3 4
5 5 6 6 6 6 7 7 7 7 7 7 7 7 6 6 5 6 5 4 2 3 3 2 2 1 2 2 3 3 3 2 2 2 2 8 8 8